Miscellaneous Local Product
Issued by NWS North Platte, NE

Home | Current Version | Previous Version | Graphics & Text | Print | Product List | Glossary On
Versions: 1 2 3 4 5 6 7 8 9 10 11 12 13 14 15 16 17 18 19 20 21 22 23 24 25 26 27 28 29 30 31 32 33 34 35 36 37 38 39 40 41 42 43 44 45 46 47 48 49 50
883
AXUS43 KLBF 061310
MISLBF


WESTERN AND NORTH CENTRAL NEBRASKA HOURLY WEATHER ROUNDUP
NATIONAL WEATHER SERVICE NORTH PLATTE NE
700 AM CST TUE DEC 06 2016

NOTE: "FAIR" INDICATES FEW OR NO CLOUDS BELOW 12,000 FEET WITH NO
SIGNIFICANT WEATHER AND/OR OBSTRUCTIONS TO VISIBILITY.

NOTE: STATIONS NOT REPORTING VARIABLES SUCH AS SKY/WEATHER OR
PRESSURE ARE PROVIDED BY RAWS AND APRS NETWORKS AND ARE NOT UNDER
NATIONAL WEATHER SERVICE QUALITY CONTROL.

...OBSERVATIONS IN AND NEAR THE EASTERN PANHANDLE OF NEBRASKA...

CITY           SKY/WX    TMP DP  RH WIND       PRES   REMARKS
PINE RIDGE     CLEAR      8   3  80 W8        29.96R WCI  -4
CHADRON        CLEAR      9   2  73 SW12      30.00R WCI  -6
ALLIANCE       CLEAR      1  -4  79 SW8       29.95S WCI -13
SIDNEY         CLEAR      4  -1  80 W7        29.96S WCI  -8
CRESCENT LAKE    N/A      7   1  76 W7          N/A  WCI  -4
$$

...OBSERVATIONS IN NORTHERN NEBRASKA AND FAR SOUTHERN SOUTH DAKOTA...

CITY           SKY/WX    TMP DP  RH WIND       PRES   REMARKS
WINNER         FAIR      15   5  64 NW20G31   29.95R WCI  -2
VALENTINE      CLEAR     10   3  73 W10       29.96R WCI  -4
THEDFORD       CLEAR     16   9  73 W10       29.96R WCI   4
AINSWORTH      CLEAR     14   8  78 W9        29.95R WCI   1
O`NEILL        CLEAR     19   6  57 NW20G32   29.94R WCI   3
ORD            CLEAR     16  10  77 W9        29.98R WCI   4
BROKEN BOW     CLEAR     14   9  80 W8        29.98R WCI   3
VALENTINE NWR    N/A     12   5  74 NW10        N/A  WCI  -1
BUTTE            N/A     14   6  70 W20G37      N/A  WCI  -3
HALSEY           N/A     14   6  69 W9          N/A  WCI   2
CHAMBERS         N/A     19   4  51 CALM        N/A
EWING            N/A     18   8  65 NW12G20     N/A  WCI   6
$$

...OBSERVATIONS IN SOUTHWEST NEBRASKA AND FAR NORTHEAST COLORADO...

CITY           SKY/WX    TMP DP  RH WIND       PRES   REMARKS
WRAY           PTSUNNY    9   5  85 MISG      30.02R
HOLYOKE        FAIR      18   7  62 NW10      30.00S WCI   6
IMPERIAL       CLEAR     13   4  67 NW8       30.01S WCI   2
OGALLALA       CLEAR      9   4  80 W8        30.01S WCI  -3
NORTH PLATTE   CLEAR     14   7  73 W8        30.00R WCI   3
MCCOOK         CLEAR     17   7  64 W9        30.05R WCI   6
LEXINGTON      CLEAR     17  11  77 W6        30.03R WCI   8
STAPLETON        N/A     14   8  76 CALM        N/A
GOTHENBURG       N/A     15   8  73 W5          N/A  WCI   8
CALLAWAY         N/A     14   8  76 NW7         N/A  WCI   4
$$

...OBSERVATIONS IN CENTRAL LINCOLN COUNTY AREA...

CITY           SKY/WX    TMP DP  RH WIND       PRES   REMARKS
N.P. AIRPORT   CLEAR     14   7  73 W8        30.00R WCI   3
N.P. DOWNTOWN    N/A     14   7  75 CALM        N/A
N.P. SOUTHEAST   N/A     14   6  72 CALM        N/A
N.P. HILLCREST   N/A     13   8  79 NW3         N/A
$$

...SOME OBSERVATIONS FROM AROUND THE REGION...

CITY           SKY/WX    TMP DP  RH WIND       PRES   REMARKS
LARAMIE        CLOUDY    -4 -14  62 SE8       29.83S WCI -19
CHEYENNE       CLEAR      8 -12  39 W16       29.87R WCI -10
DENVER         PTCLDY     7  -2  66 S10       29.91F WCI  -8
AKRON          MOCLDY    12   2  64 NW10      29.95S WCI  -1
SCOTTSBLUFF    CLEAR      4  -2  76 N9        29.98S WCI -10
RAPID CITY     CLEAR     10   1  67 N14       29.93S WCI  -6
BISMARCK       LGT SNOW  10   8  92 NW25G39   29.80R VSB 1   WCI -11
PIERRE         CLOUDY    13   5  70 NW35G47   29.92S HAZE    WCI -10
SIOUX FALLS    LGT SNOW  18  12  77 W22G33    29.84S WCI   1
OMAHA          CLEAR     23  11  60 NW17      29.99R WCI   9
GRAND ISLAND   CLEAR     19  12  74 NW8       30.01R WCI   9
KANSAS CITY    MOCLDY    31  22  69 NW14G24   29.96R WCI  21
WICHITA        PTCLDY    30  21  69 N15       30.03R WCI  19
OKLAHOMA CITY  MOCLDY    36  29  75 N24G37    29.96R WCI  24
DALLAS         DRIZZLE   49  48  97 NE9       29.85R FOG
AMARILLO       PTCLDY    27  13  55 N17       30.06R WCI  14
DODGE CITY     PTCLDY    21  14  74 N10       30.06R WCI  10
HAYS           CLEAR     23  14  68 NW8       30.06R WCI  14
GOODLAND       CLOUDY     8   3  80 W9        30.02S WCI  -5
$$




USA.gov is the U.S. government's official web portal to all federal, state and local government web resources and services.